Mecheria, Algeria

8:34 AM CET on August 25, 2019 (GMT +0100)
Mecheria

Weather History for DAAY - June, 2019

Change the Weather History Date:

Tuesday, June 11, 2019

  Actual Average (WUND) Record (WUND)
Temperature  
Mean Temperature 67 °F -  
Max Temperature 84 °F - - (-1)
Min Temperature 50 °F - - (-1)
Cooling Degree Days 2    
Growing Degree Days 17 (Base 50)    
Moisture  
Dew Point 43 °F    
Average Humidity 42    
Maximum Humidity 87    
Minimum Humidity 7    
Precipitation  
Precipitation 0.00 in - - ()
Sea Level Pressure  
Sea Level Pressure 30.02 in    
Wind  
Wind Speed 8 mph ()    
Max Wind Speed 14 mph    
Max Gust Speed -    
Visibility 6.0 miles    
Events      
Averages and records for this station are not official NWS values.
T = Trace of Precipitation, MM = Missing Value Source: Averaged Metar Reports

Daily Weather History Graph

Daily Weather History Graph

Search for Another Location

Airport or City:

Astronomy

Jun. 11, 2019 Rise Set
Actual Time 5:50 AM CET 8:10 PM CET
Civil Twilight 5:21 AM CET 8:39 PM CET
Nautical Twilight 4:46 AM CET 9:15 PM CET
Astronomical Twilight 4:07 AM CET 9:53 PM CET
Moon 2:13 PM CET (6/11) 2:04 AM CET (6/11)
Length of Visible Light 15h 18m
Length of Day
14h 20m
Waxing Gibbous, 64% of the Moon is Illuminated
Jun 11
Waxing Gibbous
Jun 17
Full
Jun 25
Last Quarter
Jul 2
New
Jul 9
First Quarter

Hourly Weather History & Observations

Time (CET) Temp. Dew Point Humidity Pressure Visibility Wind Dir Wind Speed Gust Speed Precip Events Conditions
12:00 AM 62.6 °F 46.4 °F 55% 30.09 in - North 13.8 mph - N/A   Clear
3:00 AM 55.4 °F 50.0 °F 82% 30.06 in - NNE 9.2 mph - N/A   Clear
4:00 AM 55.4 °F 48.2 °F 77% 30.04 in - NNE 6.9 mph - N/A   Clear
6:00 AM 50.0 °F 46.4 °F 87% 30.04 in - Calm Calm - N/A   Clear
7:00 AM 56 °F 50 °F 74%  in 6 mi Calm Calm - -  
7:00 AM 55.4 °F 50.0 °F 82% 30.06 in - Calm Calm - N/A   Clear
8:00 AM 59.0 °F 51.8 °F 77% 30.06 in - SSW 11.5 mph - N/A   Clear
9:00 AM 64.4 °F 51.8 °F 64% 30.04 in - Calm Calm - N/A   Clear
10:00 AM 68 °F 53 °F 48%  in 6 mi North 13.8 mph - -  
10:00 AM 68.0 °F 53.6 °F 60% 30.04 in - North 13.8 mph - N/A   Clear
11:00 AM 71.6 °F 51.8 °F 50% 30.04 in - West 11.5 mph - N/A   Clear
12:00 PM 73.4 °F 48.2 °F 41% 30.04 in - WSW 9.2 mph - N/A   Clear
1:00 PM 78 °F 45 °F 21%  in 6 mi West 9.2 mph - -  
1:00 PM 77.0 °F 44.6 °F 32% 30.04 in - West 9.2 mph - N/A   Clear
2:00 PM 78.8 °F 41.0 °F 26% 30.01 in - North 9.2 mph - N/A   Clear
3:00 PM 82.4 °F 41.0 °F 23% 30.01 in - North 11.5 mph - N/A   Clear
4:00 PM 83 °F 38 °F 11%  in 6 mi WNW 11.5 mph - -  
4:00 PM 84.2 °F 37.4 °F 19% 29.98 in - WNW 11.5 mph - N/A   Clear
5:00 PM 84.2 °F 33.8 °F 16% 29.98 in - WNW 13.8 mph - N/A   Clear
6:00 PM 84.2 °F 30.2 °F 14% 29.98 in - WNW 9.2 mph - N/A   Clear
7:00 PM 83 °F 29 °F 7%  in 6 mi WNW 9.2 mph - -  
7:00 PM 82.4 °F 30.2 °F 15% 29.98 in - WNW 9.2 mph - N/A   Clear
8:00 PM 80.6 °F 30.2 °F 16% 29.98 in - West 6.9 mph - N/A   Clear
10:00 PM 73.4 °F 28.4 °F 19% 30.01 in - North 13.8 mph - N/A   Clear
11:00 PM 71.6 °F 42.8 °F 35% 30.01 in - North 13.8 mph - N/A   Clear